IRIDIUM 7 [-] 1 24793U 97020B 21015.61040606 .00000096 00000-0 27109-4 0 9993 2 24793 86.3987 132.1279 0002083 90.6793 269.4641 14.34359798240517 IRIDIUM 5 [-] 1 24795U 97020D 21015.48323967 .00000349 00000-0 34644-4 0 9997 2 24795 86.3969 95.3092 0140808 84.0479 277.6770 14.80428513246050 IRIDIUM 4 [-] 1 24796U 97020E 21015.56849852 -.00000021 00000-0 -14390-4 0 9998 2 24796 86.3981 130.0931 0002109 95.1148 265.0289 14.35271488240935 IRIDIUM 914 [-] 1 24836U 97030A 21015.79018852 .00000091 00000-0 23121-4 0 9994 2 24836 86.3964 143.1932 0003540 111.2477 248.9100 14.38963603375012 IRIDIUM 16 [-] 1 24841U 97030F 21015.63765411 .00000095 00000-0 25498-4 0 9996 2 24841 86.4066 161.9874 0001838 16.5348 343.5909 14.36918140235206 IRIDIUM 911 [-] 1 24842U 97030G 21015.68665186 .00000125 00000-0 29861-4 0 9992 2 24842 86.4494 161.9674 0016309 68.3671 291.9267 14.45203943241920 IRIDIUM 17 [-] 1 24870U 97034B 21015.77785188 .00000095 00000-0 25756-4 0 9997 2 24870 86.3981 191.7648 0000691 146.6038 213.5202 14.35971946231952 IRIDIUM 920 [-] 1 24871U 97034C 21015.87821116 .00000099 00000-0 25148-4 0 9990 2 24871 86.3998 174.7994 0011698 5.1273 355.0043 14.39679033234364 IRIDIUM 921 [-] 1 24873U 97034E 21015.81965254 .00001209 00000-0 66275-4 0 9998 2 24873 86.3949 166.5347 0005999 211.3723 148.7159 15.13140718285582 IRIDIUM 26 [-] 1 24903U 97043A 21015.89046001 .00000108 00000-0 30824-4 0 9998 2 24903 86.3946 66.8512 0002199 88.6417 271.5031 14.35435680225220 IRIDIUM 22 [-] 1 24907U 97043E 21015.84566462 .00000106 00000-0 30685-4 0 9998 2 24907 86.3949 69.1562 0002263 94.2393 265.9062 14.34368540225428 DUMMY MASS 1 [-] 1 24925U 97048A 21015.68725535 .00000069 00000-0 47534-5 0 9993 2 24925 86.3375 160.0886 0009380 94.8394 265.3901 14.85249549265552 DUMMY MASS 2 [-] 1 24926U 97048B 21015.66079440 .00000073 00000-0 51934-5 0 9993 2 24926 86.3375 161.4310 0010130 102.3271 257.9087 14.85016730265369 IRIDIUM 29 [-] 1 24944U 97051A 21015.67284118 .00000110 00000-0 31959-4 0 9994 2 24944 86.3962 99.5950 0002415 99.6985 260.4484 14.34783279221825 IRIDIUM 33 [-] 1 24946U 97051C 21015.66249092 .00000102 00000-0 29671-4 0 9996 2 24946 86.3876 99.0973 0005999 308.6825 51.3833 14.33714297221498 IRIDIUM 28 [-] 1 24948U 97051E 21015.51728437 .00000106 00000-0 29683-4 0 9994 2 24948 86.3965 98.1098 0001932 87.1135 273.0282 14.35737798222229 IRIDIUM 36 [-] 1 24967U 97056C 21015.60803365 .00000091 00000-0 24649-4 0 9994 2 24967 86.3992 129.7505 0001968 101.7566 258.3852 14.35805901220593 IRIDIUM 39 [-] 1 25042U 97069D 21015.74342777 .00000122 00000-0 28344-4 0 9994 2 25042 86.3944 180.8494 0016957 282.3585 77.5719 14.46433646215593 IRIDIUM 38 [-] 1 25043U 97069E 21015.72496612 .00000088 00000-0 23302-4 0 9991 2 25043 86.3980 190.4937 0001823 48.5552 311.5801 14.36234128214275 IRIDIUM 42 [-] 1 25077U 97077A 21015.73912974 .00000088 00000-0 24023-4 0 9993 2 25077 86.3984 194.7323 0001942 75.1744 284.9667 14.34625679209789 IRIDIUM 44 [-] 1 25078U 97077B 21015.89578977 .00000091 00000-0 23213-4 0 9996 2 25078 86.3983 180.8999 0000557 20.5507 339.5714 14.38341679211700 IRIDIUM 45 [-] 1 25104U 97082A 21015.89323017 .00000726 00000-0 53851-4 0 9991 2 25104 86.3797 76.0083 0212966 14.1175 346.5872 14.84759418210956 IRIDIUM 24 [-] 1 25105U 97082B 21015.82150037 .00000101 00000-0 25736-4 0 9993 2 25105 86.3899 42.6710 0011590 7.6543 352.4831 14.40063139210920 IRIDIUM 51 [-] 1 25262U 98018A 21015.75132795 .00000729 00000-0 48938-4 0 9995 2 25262 86.3981 88.2753 0203218 0.1381 359.9863 14.89540475204765 IRIDIUM 57 [-] 1 25273U 98019B 21015.48488777 .00000111 00000-0 32491-4 0 9994 2 25273 86.3967 100.4830 0002203 97.1574 262.9873 14.34412493193382 IRIDIUM 63 [-] 1 25286U 98021B 21015.78356959 .00000080 00000-0 21133-4 0 9996 2 25286 86.3975 37.2871 0002399 93.9269 266.2201 14.34858842192404 IRIDIUM 69 [-] 1 25319U 98026A 21015.85461864 .00000141 00000-0 39357-4 0 9993 2 25319 86.3972 55.1266 0000803 17.8811 342.2416 14.38885812190964 IRIDIUM 71 [-] 1 25320U 98026B 21015.82301709 .00000110 00000-0 29141-4 0 9999 2 25320 86.3956 50.4025 0003029 48.2201 311.9256 14.39284616191437 IRIDIUM 73 [-] 1 25344U 98032C 21015.70353401 .00000092 00000-0 18879-4 0 9990 2 25344 86.4423 9.8309 0002434 75.1911 284.9562 14.49269425196753 IRIDIUM 82 [-] 1 25467U 98051A 21015.76358933 .00000485 00000-0 32764-4 0 9993 2 25467 86.4024 142.8009 0179099 41.9549 319.5238 14.91225744181720 IRIDIUM 2 [-] 1 25527U 98066A 21015.82087274 .00001269 00000-0 58673-4 0 9998 2 25527 85.5304 338.1845 0007193 326.3619 33.7165 15.19085955216866